(520089) = 2013 YJ88

Discovered at Kitt Peak on 2010-03-19 by Spacewatch.

Orbit

Orbit type: Main Belt

Note: WebGL enabled browser required.

epoch2024-03-31.0
epoch JD2460400.5
perihelion date2023-04-11.97232
perihelion JD2460046.47232
argument of perihelion (°)17.96956
ascending node (°)98.29933
inclination (°)6.29086
eccentricity0.1187190
perihelion distance (AU)2.4592079
Tisserand w.r.t. Jupiter3.3
ΔV w.r.t. Earth (km/sec)10.0
semimajor axis (AU)2.7904924
mean anomaly (°)74.85486
mean daily motion (°/day)0.21143790
aphelion distance (AU)3.122
period (years)4.66
P-vector [x]-0.44074613
P-vector [y]0.80952980
P-vector [z]0.38782000
Q-vector [x]-0.89105901
Q-vector [y]-0.44676531
Q-vector [z]-0.08009122
absolute magnitude16.98
phase slope0.15
uncertainty0
referenceE2024-H23
observations used117
oppositions9
arc length (days)5143
first opposition used2010
last opposition used2024
residual rms (arc-secs)0.85
perturbers coarse indicatorM-v
perturbers precise indicator003Ek
first observation date used2010-03-19.0
last observation date used2024-04-17.0
computer nameMPCLINUX
Minimum Orbit Intersection Distances (in AU)
for orbit epoch: 2460400.5, reference: E2024-H23
Mercury2.13464
Venus1.74059
Earth1.47697
Mars0.81961
Jupiter1.97177
Saturn6.51654
Uranus15.8518
Neptune26.9733

Observations

113 total observations over interval: 2010 03 19.40108 – 2024 03 19.605453
These data are available for download (format description).

Date (UT) J2000 RA J2000 Dec Magn Location Ref
2010 03 19.40108 14 16 27.80 -04 04 12.9 21.1 V 691 – Steward Observatory, Kitt Peak-Spacewatch MPS 885377
2010 03 19.41876 14 16 27.32 -04 04 09.2 21.1 V 691 – Steward Observatory, Kitt Peak-Spacewatch MPS 885377
2010 03 19.43643 14 16 26.76 -04 04 03.9 21.0 V 691 – Steward Observatory, Kitt Peak-Spacewatch MPS 885377
2010 04 14.22529 13 58 58.01 -02 08 38.7 20.8 V 691 – Steward Observatory, Kitt Peak-Spacewatch MPS 885377
2010 04 14.24046 13 58 57.24 -02 08 34.7 20.5 V 691 – Steward Observatory, Kitt Peak-Spacewatch MPS 885377
2010 04 14.25562 13 58 56.46 -02 08 31.1 21.1 V 691 – Steward Observatory, Kitt Peak-Spacewatch MPS 885377
2012 10 15.337435 00 42 55.631 -05 49 28.67 21.1 w F51 – Pan-STARRS 1, Haleakala MPS 885377
2012 10 15.356606 00 42 54.683 -05 49 33.14 21.1 w F51 – Pan-STARRS 1, Haleakala MPS 885377
2012 10 15.371133 00 42 53.973 -05 49 36.33 21.1 w F51 – Pan-STARRS 1, Haleakala MPS 885377
2013 12 28.43711 09 15 37.45 +19 45 03.4 20.4 V 691 – Steward Observatory, Kitt Peak-Spacewatch MPS 493664
2013 12 28.45486 09 15 37.15 +19 45 08.7 20.4 V 691 – Steward Observatory, Kitt Peak-Spacewatch MPS 493664
2013 12 28.47261 09 15 36.77 +19 45 14.6 20.6 V 691 – Steward Observatory, Kitt Peak-Spacewatch MPS 493664
2014 01 01.40828 09 14 15.60 +20 06 10.0 20.5 V 691 – Steward Observatory, Kitt Peak-Spacewatch MPS 493664
2014 01 01.42602 09 14 15.10 +20 06 15.9 20.4 V 691 – Steward Observatory, Kitt Peak-Spacewatch MPS 493664
2014 01 01.44376 09 14 14.65 +20 06 21.9 20.4 V 691 – Steward Observatory, Kitt Peak-Spacewatch MPS 493664
2014 01 09.36749 09 10 11.69 +20 53 41.0 20.8 V 691 – Steward Observatory, Kitt Peak-Spacewatch MPS 885377
2014 01 09.38535 09 10 11.01 +20 53 47.8 20.5 V 691 – Steward Observatory, Kitt Peak-Spacewatch MPS 885377
2014 01 09.40315 09 10 10.31 +20 53 54.6 20.3 V 691 – Steward Observatory, Kitt Peak-Spacewatch MPS 885377
2014 02 05.27036 08 47 59.07 +23 45 20.4 19.7 V G96 – Mt. Lemmon Survey MPS 885377
2014 02 05.28432 08 47 58.29 +23 45 25.2 19.8 V G96 – Mt. Lemmon Survey MPS 885377
2014 02 05.29125 08 47 57.89 +23 45 27.7 20.1 V G96 – Mt. Lemmon Survey MPS 885377
2014 02 20.10922 08 36 06.65 +24 51 56.4 20.7 V 691 – Steward Observatory, Kitt Peak-Spacewatch MPS 885377
2014 02 20.14490 08 36 05.16 +24 52 03.0 20.6 V 691 – Steward Observatory, Kitt Peak-Spacewatch MPS 885377
2014 02 20.17159 08 36 04.05 +24 52 08.4 20.9 V 691 – Steward Observatory, Kitt Peak-Spacewatch MPS 885377
2014 02 26.39964 08 32 24.021 +25 09 41.65 20.7 w F51 – Pan-STARRS 1, Haleakala MPS 885377
2014 02 26.41268 08 32 23.593 +25 09 43.34 20.8 w F51 – Pan-STARRS 1, Haleakala MPS 885377
2014 02 26.42568 08 32 23.167 +25 09 45.00 20.6 w F51 – Pan-STARRS 1, Haleakala MPS 885377
2014 02 26.43870 08 32 22.746 +25 09 46.73 20.6 w F51 – Pan-STARRS 1, Haleakala MPS 885377
2014 03 06.40339 08 29 15.284 +25 22 56.90 20.8 w F51 – Pan-STARRS 1, Haleakala MPS 885377
2014 03 06.41642 08 29 15.051 +25 22 57.69 20.7 w F51 – Pan-STARRS 1, Haleakala MPS 885377
2014 03 06.42949 08 29 14.819 +25 22 58.16 20.9 w F51 – Pan-STARRS 1, Haleakala MPS 885377
2015 04 23.55207 16 14 02.245 -14 41 18.69 21.2 w F51 – Pan-STARRS 1, Haleakala MPS 885377
2015 04 23.56474 16 14 01.776 -14 41 17.74 21.2 w F51 – Pan-STARRS 1, Haleakala MPS 885377
2015 04 23.57743 16 14 01.311 -14 41 16.25 21.2 w F51 – Pan-STARRS 1, Haleakala MPS 885377
2015 05 20.28596 15 52 55.83 -13 59 01.8 21.7   W84 – Cerro Tololo-DECam MPS 1579785
2015 05 20.28919 15 52 55.67 -13 59 01.4   W84 – Cerro Tololo-DECam MPS 1579785
2015 05 20.29243 15 52 55.48 -13 59 01.3   W84 – Cerro Tololo-DECam MPS 1579785
2015 05 20.29567 15 52 55.30 -13 59 01.1   W84 – Cerro Tololo-DECam MPS 1579785
2015 05 20.29892 15 52 55.12 -13 59 00.9   W84 – Cerro Tololo-DECam MPS 1579785
2015 05 21.31343 15 52 00.46 -13 57 41.5 21.0   W84 – Cerro Tololo-DECam MPS 1579785
2015 05 21.31669 15 52 00.29 -13 57 41.3   W84 – Cerro Tololo-DECam MPS 1579785
2015 05 21.31993 15 52 00.10 -13 57 41.0   W84 – Cerro Tololo-DECam MPS 1579785
2015 05 21.32318 15 51 59.92 -13 57 40.7   W84 – Cerro Tololo-DECam MPS 1579785
2015 05 21.32641 15 51 59.74 -13 57 40.4   W84 – Cerro Tololo-DECam MPS 1579785
2017 10 15.38057 03 20 08.39 +09 53 05.6 20.5 G G96 – Mt. Lemmon Survey MPS 885377
2017 10 15.38577 03 20 08.16 +09 53 05.5 20.7 G G96 – Mt. Lemmon Survey MPS 885377
2017 10 15.39099 03 20 07.98 +09 53 04.1 20.6 G G96 – Mt. Lemmon Survey MPS 885377
2017 10 15.39618 03 20 07.80 +09 53 03.2 20.6 G G96 – Mt. Lemmon Survey MPS 885377
2017 10 23.34876 03 14 49.68 +09 29 20.6 20.4 G G96 – Mt. Lemmon Survey MPS 885377
2017 10 23.35394 03 14 49.44 +09 29 19.3 20.4 G G96 – Mt. Lemmon Survey MPS 885377
2017 10 23.35916 03 14 49.15 +09 29 18.6 20.2 G G96 – Mt. Lemmon Survey MPS 885377
2017 10 23.36436 03 14 48.95 +09 29 17.3 20.1 G G96 – Mt. Lemmon Survey MPS 885377
2017 11 16.25879 02 54 02.91 +08 27 18.6 20.1 G G96 – Mt. Lemmon Survey MPS 888679
2017 11 16.26407 02 54 02.62 +08 27 17.9 20.4 G G96 – Mt. Lemmon Survey MPS 888679
2017 11 16.26934 02 54 02.34 +08 27 17.3 20.2 G G96 – Mt. Lemmon Survey MPS 888679
2017 11 16.27454 02 54 02.03 +08 27 17.1 20.3 G G96 – Mt. Lemmon Survey MPS 888679
2018 01 12.29263 02 35 55.555 +10 18 48.95 21.7 w F51 – Pan-STARRS 1, Haleakala MPS 885377
2018 01 12.30331 02 35 55.815 +10 18 52.35 21.8 w F51 – Pan-STARRS 1, Haleakala MPS 885377
2018 01 12.31396 02 35 56.044 +10 18 55.78 21.6 w F51 – Pan-STARRS 1, Haleakala MPS 885377
2019 02 05.49218 12 09 51.119 +08 05 15.41 20.9 w F51 – Pan-STARRS 1, Haleakala MPS 969755
2019 02 05.50459 12 09 50.964 +08 05 18.96 21.0 w F51 – Pan-STARRS 1, Haleakala MPS 969755
2019 02 05.51704 12 09 50.833 +08 05 22.79 20.9 w F51 – Pan-STARRS 1, Haleakala MPS 969755
2019 02 05.52957 12 09 50.685 +08 05 26.34 21.0 w F51 – Pan-STARRS 1, Haleakala MPS 969755
2019 02 11.39390 12 08 24.61 +08 36 43.6   G96 – Mt. Lemmon Survey MPS 974144
2019 02 11.39951 12 08 24.47 +08 36 46.1 20.9 G G96 – Mt. Lemmon Survey MPS 974144
2019 02 11.40513 12 08 24.34 +08 36 47.6 20.2 G G96 – Mt. Lemmon Survey MPS 974145
2019 02 11.41075 12 08 24.19 +08 36 50.1   G96 – Mt. Lemmon Survey MPS 974145
2019 02 26.51357 12 00 50.18 +10 13 01.4 20.6 G G96 – Mt. Lemmon Survey MPS 976296
2019 02 26.52066 12 00 49.89 +10 13 04.6 20.6 G G96 – Mt. Lemmon Survey MPS 976296
2019 02 26.53084 12 00 49.50 +10 13 08.7 20.2 G G96 – Mt. Lemmon Survey MPS 976296
2019 02 26.53741 12 00 49.22 +10 13 11.0 19.9 G G96 – Mt. Lemmon Survey MPS 976296
2019 03 03.74545 11 57 09.52 +10 48 30.5 20.8 R D29 – Purple Mountain Observatory, XuYi Station MPS 977958
2019 03 03.75959 11 57 08.93 +10 48 35.3 20.6 R D29 – Purple Mountain Observatory, XuYi Station MPS 977958
2019 03 03.77373 11 57 08.32 +10 48 41.0 20.3 R D29 – Purple Mountain Observatory, XuYi Station MPS 977958
2021 07 13.565752 23 30 04.632 -10 20 29.02 21.81 w F51 – Pan-STARRS 1, Haleakala MPS 1436782
2021 07 13.576987 23 30 04.668 -10 20 30.64 21.96 w F51 – Pan-STARRS 1, Haleakala MPS 1436782
2021 07 13.588207 23 30 04.725 -10 20 32.41 21.85 w F51 – Pan-STARRS 1, Haleakala MPS 1436782
2021 08 08.336980 23 25 25.691 -12 06 36.07 21.5 G G37 – Lowell Discovery Telescope MPS 1444627
2021 08 08.384980 23 25 24.315 -12 06 52.07   G37 – Lowell Discovery Telescope MPS 1444627
2021 08 08.433160 23 25 22.939 -12 07 08.15   G37 – Lowell Discovery Telescope MPS 1444627
2021 08 16.505677 23 21 06.310 -12 54 20.75 21.31 w F51 – Pan-STARRS 1, Haleakala MPS 1459568
2021 08 16.516904 23 21 05.877 -12 54 24.77 21.48 w F51 – Pan-STARRS 1, Haleakala MPS 1459568
2021 08 16.528119 23 21 05.447 -12 54 29.00 21.30 w F51 – Pan-STARRS 1, Haleakala MPS 1459568
2021 08 16.539372 23 21 05.034 -12 54 33.18 21.22 w F51 – Pan-STARRS 1, Haleakala MPS 1459568
2021 08 31.468522 23 10 34.662 -14 27 01.83 21.21 w F51 – Pan-STARRS 1, Haleakala MPS 1459568
2021 08 31.493122 23 10 33.456 -14 27 10.71 21.32 w F51 – Pan-STARRS 1, Haleakala MPS 1459568
2021 08 31.522770 23 10 32.025 -14 27 21.39 21.24 w F51 – Pan-STARRS 1, Haleakala MPS 1459568
2021 09 03.424792 23 08 14.468 -14 44 47.22 20.74 w F51 – Pan-STARRS 1, Haleakala MPS 1459568
2021 09 03.436844 23 08 13.860 -14 44 51.99 20.96 w F51 – Pan-STARRS 1, Haleakala MPS 1459568
2021 09 03.448714 23 08 13.257 -14 44 55.97 20.93 w F51 – Pan-STARRS 1, Haleakala MPS 1459568
2021 09 05.365947 23 06 41.101 -14 56 09.21 21.08 w F51 – Pan-STARRS 1, Haleakala MPS 1459568
2021 09 05.377483 23 06 40.548 -14 56 13.23 20.99 w F51 – Pan-STARRS 1, Haleakala MPS 1459568
2021 09 05.389104 23 06 39.942 -14 56 17.26 20.84 w F51 – Pan-STARRS 1, Haleakala MPS 1459568
2021 09 05.400647 23 06 39.368 -14 56 21.35 20.98 w F51 – Pan-STARRS 1, Haleakala MPS 1459568
2021 09 09.430184 23 03 23.874 -15 18 58.31 21.36 w F51 – Pan-STARRS 1, Haleakala MPS 1470520
2021 09 09.441428 23 03 23.313 -15 19 02.03 21.11 w F51 – Pan-STARRS 1, Haleakala MPS 1470520
2021 09 09.469068 23 03 21.933 -15 19 11.19 21.35 w F51 – Pan-STARRS 1, Haleakala MPS 1470520
2021 09 13.409944 23 00 11.913 -15 39 43.41 21.73 w F51 – Pan-STARRS 1, Haleakala MPS 1470520
2021 09 13.420677 23 00 11.375 -15 39 46.61 21.50 w F51 – Pan-STARRS 1, Haleakala MPS 1470520
2021 09 13.431435 23 00 10.846 -15 39 49.86 21.40 w F51 – Pan-STARRS 1, Haleakala MPS 1470520
2021 09 13.442159 23 00 10.324 -15 39 53.13 21.39 w F51 – Pan-STARRS 1, Haleakala MPS 1470520
2022 12 17.288665 05 41 24.929 +21 02 30.34 19.81 G G96 – Mt. Lemmon Survey MPS 1726112
2022 12 17.294213 05 41 24.594 +21 02 30.98 19.86 G G96 – Mt. Lemmon Survey MPS 1726112
2022 12 17.299766 05 41 24.241 +21 02 31.92 19.90 G G96 – Mt. Lemmon Survey MPS 1726112
2022 12 17.305315 05 41 23.899 +21 02 32.57 19.87 G G96 – Mt. Lemmon Survey MPS 1726112
2022 12 24.268328 05 34 28.322 +21 18 37.19 20.30 G G96 – Mt. Lemmon Survey MPS 1732277
2022 12 24.273936 05 34 27.962 +21 18 37.69 20.13 G G96 – Mt. Lemmon Survey MPS 1732277
2022 12 24.279550 05 34 27.620 +21 18 38.74 20.05 G G96 – Mt. Lemmon Survey MPS 1732277
2022 12 24.285165 05 34 27.235 +21 18 39.17 19.48 G G96 – Mt. Lemmon Survey MPS 1732277
2024 03 19.567815 14 21 03.633 -04 33 58.90 21.85 w F51 – Pan-STARRS 1, Haleakala MPS 2156057
2024 03 19.580161 14 21 03.287 -04 33 56.35 21.65 w F51 – Pan-STARRS 1, Haleakala MPS 2156057
2024 03 19.593095 14 21 02.954 -04 33 52.95 21.78 w F51 – Pan-STARRS 1, Haleakala MPS 2156057
2024 03 19.605453 14 21 02.601 -04 33 49.95 21.90 w F51 – Pan-STARRS 1, Haleakala MPS 2156057